Location: Amsterdam
(30.7274°N, 84.4357°W)
Time: 21:28:50
(UTC+00:00)

Injun/Solrad 3 - Pass Details

Date: 19 February 2026
Orbit: 872 x 984 km, 66.8° (Epoch: 8 March)

Event Time Altitude Azimuth Distance (km) Brightness Sun altitude
Rises 16:17:42 0° 214° (SSW) 3,445 11.1 42.5°
Reaches altitude 10° 16:20:12 10° 218° (SW) 2,509 10.5 42.8°
Maximum altitude 16:25:53 59° 297° (WNW) 1,004 8.4 43.4°
Drops below altitude 10° 16:31:41 10° 17° (NNE) 2,548 10.0 44.0°
Sets 16:34:15 0° 21° (NNE) 3,503 10.6 44.2°
